• In Hungary
  • List of Countries
  • For 7 days
  • Water Temperature
  • Satellite Maps
  • Weather Map
  • News
  • Weather Widgets
  • user-avatar
    Login

    Hourly Weather Manage

    Today, 12 December, Tuesday

    Time Temperature Precipitation Wind Pressure Humidity
    00:00 -1°C° 0 mm 6 mps 732 mmHg 85%
    01:00 0°C° 0.1 mm 5 mps 734 mmHg 85%
    02:00 0°C° 0.1 mm 5 mps 735 mmHg 86%
    03:00 0°C° 0.1 mm 4 mps 736 mmHg 86%
    04:00 -1°C° 0 mm 4 mps 738 mmHg 88%
    05:00 -1°C° 0 mm 4 mps 739 mmHg 90%
    06:00 -2°C° 0 mm 4 mps 740 mmHg 93%
    07:00 -1°C° 0.1 mm 4 mps 741 mmHg 92%
    08:00 -1°C° 0.1 mm 4 mps 742 mmHg 92%
    09:00 -1°C° 0.1 mm 4 mps 743 mmHg 91%
    10:00 0°C° 0.2 mm 4 mps 744 mmHg 89%
    11:00 0°C° 0.2 mm 4 mps 744 mmHg 87%
    12:00 +1°C° 0.2 mm 5 mps 745 mmHg 85%
    13:00 +1°C° 0.1 mm 4 mps 745 mmHg 86%
    14:00 +1°C° 0.1 mm 3 mps 746 mmHg 87%
    15:00 +1°C° 0.1 mm 3 mps 746 mmHg 87%
    16:00 +1°C° 0 mm 3 mps 747 mmHg 89%
    17:00 0°C° 0 mm 3 mps 747 mmHg 90%
    18:00 -1°C° 0 mm 3 mps 748 mmHg 91%
    19:00 -1°C° 0 mm 3 mps 748 mmHg 91%
    20:00 -2°C° 0 mm 4 mps 748 mmHg 91%
    21:00 -2°C° 0 mm 4 mps 748 mmHg 91%
    22:00 -2°C° 0 mm 4 mps 748 mmHg 90%
    23:00 -1°C° 0 mm 5 mps 748 mmHg 90%

    Tomorrow, 13 December, Wednesday

    Time Temperature Precipitation Wind Pressure Humidity
    00:00 -1°C° 0 mm 5 mps 748 mmHg 89%
    01:00 -2°C° 0 mm 6 mps 747 mmHg 89%
    02:00 -2°C° 0 mm 6 mps 747 mmHg 89%
    03:00 -1°C° 0 mm 7 mps 746 mmHg 89%
    04:00 -1°C° 0.2 mm 7 mps 746 mmHg 88%
    05:00 -1°C° 0.2 mm 8 mps 745 mmHg 87%
    06:00 0°C° 0.2 mm 9 mps 744 mmHg 86%
    07:00 0°C° 0.9 mm 9 mps 743 mmHg 87%
    08:00 +1°C° 0.9 mm 9 mps 743 mmHg 87%
    09:00 +1°C° 0.9 mm 10 mps 743 mmHg 88%
    10:00 +2°C° 0.4 mm 9 mps 742 mmHg 89%
    11:00 +2°C° 0.4 mm 8 mps 741 mmHg 90%
    12:00 +4°C° 0.4 mm 7 mps 741 mmHg 91%
    13:00 +4°C° 0.8 mm 7 mps 740 mmHg 92%
    14:00 +4°C° 0.8 mm 7 mps 739 mmHg 92%
    15:00 +4°C° 0.8 mm 6 mps 738 mmHg 92%
    16:00 +5°C° 0.8 mm 8 mps 737 mmHg 90%
    17:00 +5°C° 0.8 mm 9 mps 737 mmHg 89%
    18:00 +5°C° 0.8 mm 10 mps 736 mmHg 87%
    19:00 +5°C° 1.5 mm 9 mps 736 mmHg 83%
    20:00 +4°C° 1.5 mm 8 mps 736 mmHg 79%
    21:00 +4°C° 1.5 mm 7 mps 736 mmHg 75%
    22:00 +4°C° 0.3 mm 7 mps 736 mmHg 76%
    23:00 +2°C° 0.3 mm 8 mps 736 mmHg 77%

    Day after tomorrow, 14 December, Thursday

    Time Temperature Precipitation Wind Pressure Humidity
    00:00 +2°C° 0.3 mm 9 mps 736 mmHg 78%
    01:00 +1°C° 0.4 mm 8 mps 736 mmHg 74%
    02:00 0°C° 0.4 mm 8 mps 737 mmHg 71%
    03:00 0°C° 0.4 mm 7 mps 737 mmHg 67%
    04:00 0°C° 0 mm 7 mps 738 mmHg 69%
    05:00 -1°C° 0 mm 6 mps 738 mmHg 71%
    06:00 -1°C° 0 mm 6 mps 738 mmHg 73%
    07:00 +1°C° 0 mm 6 mps 738 mmHg 74%
    08:00 0°C° 0 mm 7 mps 738 mmHg 76%
    09:00 +2°C° 0 mm 7 mps 738 mmHg 77%
    10:00 +2°C° 1 mm 6 mps 737 mmHg 80%
    11:00 +2°C° 1 mm 6 mps 735 mmHg 83%
    12:00 +2°C° 1 mm 5 mps 734 mmHg 86%
    13:00 +3°C° 0.8 mm 6 mps 733 mmHg 86%
    14:00 +3°C° 0.8 mm 6 mps 732 mmHg 85%
    15:00 +3°C° 0.8 mm 6 mps 731 mmHg 85%
    16:00 +3°C° 0.2 mm 6 mps 731 mmHg 84%
    17:00 +2°C° 0.2 mm 6 mps 731 mmHg 82%
    18:00 +2°C° 0.2 mm 7 mps 732 mmHg 81%
    19:00 +1°C° 0 mm 6 mps 732 mmHg 81%
    20:00 0°C° 0 mm 5 mps 733 mmHg 80%
    21:00 0°C° 0 mm 5 mps 734 mmHg 80%
    22:00 0°C° 0.4 mm 4 mps 734 mmHg 82%
    23:00 0°C° 0.4 mm 4 mps 734 mmHg 83%

    15 December, Friday

    Time Temperature Precipitation Wind Pressure Humidity
    00:00 0°C° 0.4 mm 4 mps 734 mmHg 85%
    01:00 0°C° 0.1 mm 4 mps 734 mmHg 87%
    02:00 0°C° 0.1 mm 4 mps 734 mmHg 89%
    03:00 0°C° 0.1 mm 4 mps 734 mmHg 91%
    04:00 0°C° 0.2 mm 5 mps 734 mmHg 91%
    05:00 0°C° 0.2 mm 5 mps 734 mmHg 91%
    06:00 +1°C° 0.2 mm 5 mps 734 mmHg 90%
    07:00 +1°C° 0.6 mm 5 mps 734 mmHg 90%
    08:00 +1°C° 0.6 mm 5 mps 735 mmHg 90%
    09:00 +1°C° 0.6 mm 5 mps 735 mmHg 90%
    10:00 +2°C° 0.3 mm 5 mps 735 mmHg 90%
    11:00 +3°C° 0.3 mm 4 mps 736 mmHg 89%
    12:00 +3°C° 0.3 mm 4 mps 736 mmHg 88%
    13:00 +3°C° 0.2 mm 4 mps 737 mmHg 88%
    14:00 +3°C° 0.2 mm 4 mps 737 mmHg 88%
    15:00 +3°C° 0.2 mm 3 mps 738 mmHg 88%
    16:00 +2°C° 0 mm 3 mps 738 mmHg 89%
    17:00 +2°C° 0 mm 2 mps 739 mmHg 90%
    18:00 +2°C° 0 mm 2 mps 740 mmHg 91%
    19:00 +1°C° 0 mm 2 mps 740 mmHg 91%
    20:00 +2°C° 0 mm 1 mps 741 mmHg 90%
    21:00 +2°C° 0 mm 1 mps 742 mmHg 90%
    22:00 +1°C° 0 mm 2 mps 743 mmHg 91%
    23:00 +1°C° 0 mm 2 mps 743 mmHg 91%

    16 December, Saturday

    Time Temperature Precipitation Wind Pressure Humidity
    00:00 -1°C° 0 mm 2 mps 744 mmHg 91%
    01:00 -1°C° 0 mm 2 mps 744 mmHg 92%
    02:00 -1°C° 0 mm 2 mps 745 mmHg 92%
    03:00 -1°C° 0 mm 2 mps 745 mmHg 92%
    04:00 -1°C° 0 mm 3 mps 745 mmHg 93%
    05:00 -1°C° 0 mm 3 mps 746 mmHg 93%
    06:00 -1°C° 0 mm 3 mps 746 mmHg 93%
    07:00 0°C° 0.1 mm 3 mps 747 mmHg 93%
    08:00 0°C° 0.1 mm 3 mps 747 mmHg 93%
    09:00 0°C° 0.1 mm 4 mps 748 mmHg 92%
    10:00 +1°C° 0.1 mm 4 mps 748 mmHg 88%
    11:00 +1°C° 0.1 mm 4 mps 749 mmHg 83%
    12:00 +3°C° 0.1 mm 4 mps 749 mmHg 78%
    13:00 +3°C° 0.1 mm 4 mps 749 mmHg 80%
    14:00 +1°C° 0.1 mm 4 mps 749 mmHg 81%
    15:00 +2°C° 0.1 mm 3 mps 749 mmHg 83%
    16:00 +1°C° 0.1 mm 3 mps 750 mmHg 85%
    17:00 +1°C° 0.1 mm 3 mps 751 mmHg 87%
    18:00 0°C° 0.1 mm 3 mps 751 mmHg 89%
    19:00 0°C° 0.1 mm 3 mps 752 mmHg 90%
    20:00 0°C° 0.1 mm 3 mps 752 mmHg 90%
    21:00 0°C° 0.1 mm 3 mps 753 mmHg 91%
    22:00 0°C° 0.1 mm 3 mps 753 mmHg 91%
    23:00 -1°C° 0.1 mm 3 mps 753 mmHg 91%

    17 December, Sunday

    Time Temperature Precipitation Wind Pressure Humidity
    00:00 -1°C° 0.1 mm 3 mps 754 mmHg 91%
    01:00 -1°C° 0 mm 3 mps 754 mmHg 91%
    02:00 -1°C° 0 mm 3 mps 754 mmHg 90%
    03:00 -1°C° 0 mm 3 mps 754 mmHg 90%
    04:00 -1°C° 0 mm 3 mps 755 mmHg 90%
    05:00 -2°C° 0 mm 2 mps 755 mmHg 89%
    06:00 -2°C° 0 mm 2 mps 755 mmHg 88%
    07:00 -1°C° 0 mm 2 mps 755 mmHg 87%
    08:00 -1°C° 0 mm 2 mps 756 mmHg 86%
    09:00 -1°C° 0 mm 2 mps 756 mmHg 85%
    10:00 +1°C° 0 mm 2 mps 756 mmHg 82%
    11:00 +2°C° 0 mm 2 mps 757 mmHg 80%
    12:00 +3°C° 0 mm 2 mps 757 mmHg 78%
    13:00 +2°C° 0 mm 2 mps 757 mmHg 81%
    14:00 +2°C° 0 mm 2 mps 757 mmHg 84%
    15:00 +2°C° 0 mm 2 mps 757 mmHg 87%
    16:00 +1°C° 0 mm 2 mps 757 mmHg 88%
    17:00 -1°C° 0 mm 2 mps 758 mmHg 90%
    18:00 -1°C° 0 mm 2 mps 758 mmHg 92%
    19:00 -1°C° 0 mm 2 mps 758 mmHg 93%
    20:00 -1°C° 0 mm 2 mps 758 mmHg 93%
    21:00 -1°C° 0 mm 2 mps 759 mmHg 94%
    22:00 -1°C° 0 mm 2 mps 759 mmHg 94%
    23:00 -1°C° 0 mm 2 mps 759 mmHg 95%
    Show more